This demonstration page uses our WeatherBlox Daily Observations layout. Learn more.

Left ArrowRight Arrow

40.92945, -100.16068

Hourly Observations for March 20, 2021

Temp ( °F °C ) Dew Point ( °F °C ) Humidity (%) Winds ( mph kmh ) Pressure ( in mb ) Visibility ( mi km ) Precip ( " mm )
12:15 am 00:15 Clear 41 5 32 undefined 70 70 SSE 13 20 30.29 1026 10 16 N/A
12:35 am 00:35 Clear 39 4 34 1 81 81 SSE 10 17 30.30 1026 10 16 N/A
12:55 am 00:55 Clear 39 4 34 1 81 81 SSE 12 19 30.30 1026 10 16 N/A
1:15 am 01:15 Clear 41 5 34 1 76 76 S 14 22 30.29 1026 10 16 N/A
2:55 am 02:55 Clear 39 4 34 1 81 81 undefined N/A 30.27 1025 10 16 N/A
3:15 am 03:15 Clear 39 4 34 1 81 81 S 15 24 30.26 1025 10 16 N/A
3:35 am 03:35 Clear 39 4 34 1 81 81 S 13 20 30.26 1025 10 16 N/A
3:56 am 03:56 Clear 39 4 34 1 81 81 S 14 22 30.25 1024 10 16 N/A
4:15 am 04:15 Clear 39 3.8 34 1.1 83 83 S 13 20 30.25 1024 10 16 N/A
4:35 am 04:35 Clear 38 3.6 34 1.1 84 84 S 13 20 30.24 1024 10 16 N/A
4:55 am 04:55 Clear 38 3.5 34 1.2 85 85 S 14 22 30.24 1024 10 16 N/A
5:15 am 05:15 Clear 38 3.5 34 1.2 85 85 S 13 20 30.24 1024 10 16 N/A
5:35 am 05:35 Clear 37 3 34 1.1 87 87 S 10 17 30.25 1024 10 16 N/A
5:55 am 05:55 Clear 37 3 34 1.1 87 87 S 12 19 30.25 1024 10 16 N/A
6:15 am 06:15 Clear 37 2.9 34 1 87 87 SSE 12 19 30.25 1024 10 16 N/A
6:35 am 06:35 Clear 37 3 34 1.1 87 87 S 10 17 30.24 1024 10 16 N/A
6:55 am 06:55 Clear 37 2.7 34 1 89 89 S 10 17 30.24 1024 10 16 N/A
7:15 am 07:15 Clear 37 2.7 34 1 89 89 SSE 10 17 30.24 1024 10 16 N/A
7:35 am 07:35 Clear 37 2.7 34 1 89 89 SSE 9 15 30.23 1024 10 16 N/A
7:55 am 07:55 Sunny 37 2.6 34 1.1 90 90 SSE 10 17 30.22 1023 10 16 N/A
8:15 am 08:15 Sunny 37 3 35 1.5 90 90 SSE 12 19 30.22 1023 10 16 N/A
8:35 am 08:35 Sunny 38 3.4 35 1.6 88 88 SSE 14 22 30.20 1023 10 16 N/A
8:55 am 08:55 Sunny 39 4 36 2 87 87 SSE 12 19 30.20 1023 10 16 N/A
9:15 am 09:15 Sunny 40 4.7 36 2.3 85 85 SSE 14 22 30.19 1022 10 16 N/A
9:35 am 09:35 Sunny 42 5.5 37 2.7 82 82 S 15 24 30.17 1022 10 16 N/A
9:55 am 09:55 Sunny 43 6.3 37 2.9 79 79 S 18 30 30.17 1022 10 16 N/A
10:15 am 10:15 Sunny 45 7.3 38 3.3 76 76 S 20 31 30.16 1021 10 16 N/A
10:35 am 10:35 Sunny 47 8.2 38 3.6 73 73 S 23 37 30.15 1021 10 16 N/A
10:55 am 10:55 Sunny 48 9 38 3.6 69 69 S 25 41 30.12 1020 10 16 N/A
11:15 am 11:15 Sunny 50 9.8 38 3.6 66 66 S 25 41 30.11 1020 10 16 N/A
11:35 am 11:35 Sunny 52 11 38 3.6 61 61 S 25 41 30.09 1019 10 16 N/A
11:55 am 11:55 Sunny 53 11.8 39 4 59 59 S 24 39 30.07 1018 10 16 N/A
12:15 pm 12:15 Sunny 54 12.3 38 3.3 54 54 S 21 33 30.05 1018 10 16 N/A
12:35 pm 12:35 Sunny 56 13.2 38 3.5 52 52 S 31 50 30.03 1017 10 16 N/A
12:55 pm 12:55 Sunny 56 13.6 38 3.6 51 51 S 26 43 30.02 1017 10 16 N/A
1:15 pm 13:15 Sunny 59 14.8 39 3.9 48 48 S 25 41 30.00 1016 10 16 N/A
1:35 pm 13:35 Sunny 59 15.1 39 3.7 47 47 S 24 39 29.98 1015 10 16 N/A
1:55 pm 13:55 Sunny 60 15.8 39 4 46 46 S 25 41 29.98 1015 10 16 N/A
2:15 pm 14:15 Sunny 60 15.7 39 3.7 45 45 S 20 31 29.97 1015 10 16 N/A
2:35 pm 14:35 Sunny 61 16 39 3.7 44 44 S 28 44 29.95 1014 10 16 N/A
2:55 pm 14:55 Sunny 62 16.5 40 4.3 45 45 S 25 41 29.93 1014 10 16 N/A
3:15 pm 15:15 Sunny 63 17.3 40 4.4 43 43 S 30 48 29.91 1013 10 16 N/A
3:35 pm 15:35 Sunny 63 17 39 4.1 43 43 S 23 37 29.90 1012 10 16 N/A
3:55 pm 15:55 Sunny 64 17.6 40 4.6 42 42 SSE 30 48 29.87 1012 10 16 N/A
4:15 pm 16:15 Sunny 65 18.2 40 4.3 40 40 SSE 26 43 29.86 1011 10 16 N/A
4:35 pm 16:35 Sunny 65 18.2 39 3.9 39 39 S 32 52 29.85 1011 10 16 N/A
4:55 pm 16:55 Sunny 65 18.4 39 3.8 38 38 S 25 41 29.84 1010 10 16 N/A
5:15 pm 17:15 Sunny 64 17.9 39 3.7 39 39 SSE 31 50 29.83 1010 10 16 N/A
5:35 pm 17:35 Sunny 65 18.2 39 3.9 39 39 S 30 48 29.82 1010 10 16 N/A
5:55 pm 17:55 Sunny 65 18.2 39 4.1 39 39 S 32 52 29.82 1010 10 16 N/A
6:15 pm 18:15 Sunny 64 17.8 39 4.1 40 40 S 26 43 29.82 1010 10 16 N/A
6:35 pm 18:35 Sunny 64 17.5 39 4 41 41 S 28 44 29.82 1010 10 16 N/A
6:55 pm 18:55 Sunny 63 17 39 3.9 42 42 S 25 41 29.83 1010 10 16 N/A
7:15 pm 19:15 Sunny 62 16.5 38 3.5 42 42 SSE 26 43 29.82 1010 10 16 N/A
7:35 pm 19:35 Sunny 60 15.5 38 3.5 45 45 SSE 22 35 29.83 1010 10 16 N/A
7:55 pm 19:55 Clear 59 15.1 38 3.5 46 46 SSE 21 33 29.84 1010 10 16 N/A
8:15 pm 20:15 Clear 58 14.6 38 3.2 47 47 SSE 18 30 29.84 1010 10 16 N/A
8:35 pm 20:35 Clear 57 14 38 3.1 48 48 SE 14 22 29.85 1011 10 16 N/A
8:55 pm 20:55 Clear 56 13.2 38 3.6 52 52 SSE 17 28 29.86 1011 10 16 N/A
9:15 pm 21:15 Clear 55 12.9 38 3.6 53 53 SE 16 26 29.85 1011 10 16 N/A
9:35 pm 21:35 Clear 54 12.2 39 3.9 57 57 SSE 17 28 29.86 1011 10 16 N/A
9:55 pm 21:55 Clear 54 12 39 4 58 58 SSE 20 31 29.85 1011 10 16 N/A
10:15 pm 22:15 Clear 53 11.5 39 4 60 60 SSE 21 33 29.86 1011 10 16 N/A
10:35 pm 22:35 Clear 52 11.2 39 4.1 62 62 SSE 22 35 29.86 1011 10 16 N/A
10:55 pm 22:55 Clear 52 11 40 4.2 63 63 SSE 22 35 29.85 1011 10 16 N/A
11:15 pm 23:15 Clear 52 11 39 4.1 63 63 SSE 25 41 29.85 1011 10 16 N/A
11:35 pm 23:35 Clear 51 10.7 39 4 64 64 SSE 23 37 29.84 1011 10 16 N/A
11:55 pm 23:55 Clear 51 10.5 39 4 64 64 SSE 22 35 29.83 1010 10 16 N/A

Powered by AerisWeather